Location: Cabri�res
(43.7840°N, 5.4986°E)
Time: 03:47:51
(UTC+00:00)

CZ-2C R/B - Pass Details

Date: 09 April 2020
Orbit: 785 x 870 km, 98.3° (Epoch: 02 June)

Event Time Altitude Azimuth Distance (km) Brightness Sun altitude
Rises 19:17:42 0° 21° (NNE) 3,287 5.8 -11.6°
Reaches altitude 10° 19:20:12 10° 30° (NNE) 2,355 5.0 -12.0°
Maximum altitude 19:24:59 37° 97° (E) 1,225 3.1 -12.8°
Drops below altitude 10° 19:29:46 10° 164° (SSE) 2,364 4.6 -13.6°
Enters shadow 19:31:57 - 171° (S) 3,171 5.4 -14.0°
